TimeEST,TemperatureF,Dew PointF,Humidity,Sea Level PressureIn,VisibilityMPH,Wind Direction,Wind SpeedMPH,Gust SpeedMPH,PrecipitationIn,Events,Conditions,WindDirDegrees,DateUTC
12:00 AM,74,72,92,29.96,6,ESE,26.5,,,,Overcast,110,2014-04-23 14:00:00
12:00 AM,73.4,71.6,94,29.95,5.6,ESE,26.5,-,N/A,,Overcast,110,2014-04-23 14:00:00
12:20 AM,75.2,71.6,89,29.95,6.2,East,26.5,-,N/A,,Overcast,100,2014-04-23 14:20:00
1:00 AM,75.2,71.6,89,29.92,6.2,East,26.5,-,N/A,,Mostly Cloudy,100,2014-04-23 15:00:00
1:30 AM,75.2,69.8,83,29.92,6.2,ESE,23.0,-,N/A,,Overcast,110,2014-04-23 15:30:00
1:52 AM,75.2,69.8,83,29.92,6.2,ESE,20.7,-,N/A,,Overcast,110,2014-04-23 15:52:00
2:00 AM,75.2,69.8,83,29.92,6.2,ESE,20.7,-,N/A,,Overcast,110,2014-04-23 16:00:00
2:02 AM,75.2,69.8,83,29.92,6.2,ESE,19.6,-,N/A,,Overcast,110,2014-04-23 16:02:00
2:30 AM,75.2,69.8,83,29.92,6.2,ESE,19.6,-,N/A,,Overcast,120,2014-04-23 16:30:00
3:00 AM,75,69,76,29.91,,ESE,21.9,,,,Overcast,110,2014-04-23 17:00:00
3:00 AM,75.2,69.8,83,29.89,6.2,ESE,21.9,-,N/A,,Overcast,110,2014-04-23 17:00:00
3:30 AM,75.2,69.8,83,29.92,6.2,ESE,21.9,-,N/A,,Mostly Cloudy,110,2014-04-23 17:30:00
4:00 AM,75.2,69.8,83,29.89,6.2,ESE,20.7,-,N/A,,Overcast,110,2014-04-23 18:00:00
5:00 AM,75.2,69.8,83,29.92,6.2,ESE,19.6,-,N/A,,Mostly Cloudy,120,2014-04-23 19:00:00
6:00 AM,75,71,83,29.92,,SE,18.4,,,,,130,2014-04-23 20:00:00
6:00 AM,75.2,71.6,89,29.92,6.2,SE,18.4,-,N/A,,Overcast,130,2014-04-23 20:00:00
6:30 AM,75.2,71.6,89,29.92,6.2,SE,16.1,-,N/A,,Overcast,130,2014-04-23 20:30:00
6:50 AM,75.2,71.6,89,29.95,6.2,ESE,16.1,-,N/A,,Overcast,110,2014-04-23 20:50:00
7:00 AM,75.2,71.6,89,29.92,6.2,ESE,18.4,-,N/A,,Overcast,110,2014-04-23 21:00:00
7:11 AM,75.2,71.6,89,29.95,6.2,ESE,20.7,-,N/A,,Overcast,110,2014-04-23 21:11:00
7:29 AM,77.0,69.8,78,29.95,6.2,East,23.0,-,N/A,,Mostly Cloudy,100,2014-04-23 21:29:00
7:30 AM,77.0,69.8,78,29.95,6.2,East,23.0,-,N/A,,Mostly Cloudy,100,2014-04-23 21:30:00
8:00 AM,77.0,69.8,78,29.95,6.2,East,21.9,-,N/A,,Mostly Cloudy,90,2014-04-23 22:00:00
8:30 AM,77.0,71.6,83,29.95,6.2,East,21.9,-,N/A,,Mostly Cloudy,100,2014-04-23 22:30:00
9:00 AM,76,71,78,29.96,,East,20.7,,,,Overcast,100,2014-04-23 23:00:00
9:00 AM,77.0,69.8,78,29.95,6.2,East,20.7,-,N/A,,Mostly Cloudy,100,2014-04-23 23:00:00
9:33 AM,77.0,71.6,83,29.95,6.2,East,17.3,-,N/A,,Overcast,100,2014-04-23 23:33:00
9:54 AM,77.0,69.8,78,29.95,6.2,ENE,18.4,-,N/A,,Overcast,70,2014-04-23 23:54:00
10:00 AM,78.8,69.8,74,29.95,6.2,ENE,18.4,-,N/A,,Overcast,70,2014-04-24 00:00:00
10:30 AM,78.8,68.0,69,29.95,6.2,East,19.6,-,N/A,,Mostly Cloudy,90,2014-04-24 00:30:00
11:00 AM,78.8,69.8,74,29.95,6.2,East,19.6,-,N/A,,Mostly Cloudy,90,2014-04-24 01:00:00
11:30 AM,78.8,69.8,74,29.92,6.2,ENE,12.7,-,N/A,,Overcast,70,2014-04-24 01:30:00
12:00 PM,79,70,68,29.92,,East,15.0,,,,,90,2014-04-24 02:00:00
12:00 PM,78.8,69.8,74,29.92,6.2,East,15.0,-,N/A,,Scattered Clouds,90,2014-04-24 02:00:00
12:30 PM,78.8,71.6,78,29.92,6.2,East,15.0,-,N/A,,Scattered Clouds,90,2014-04-24 02:30:00
1:00 PM,78.8,69.8,74,29.92,6.2,East,12.7,-,N/A,,Overcast,90,2014-04-24 03:00:00
1:30 PM,80.6,71.6,74,29.89,6.2,ESE,11.5,-,N/A,,Mostly Cloudy,110,2014-04-24 03:30:00
2:00 PM,78.8,69.8,74,29.89,6.2,East,12.7,-,N/A,,Mostly Cloudy,100,2014-04-24 04:00:00
2:30 PM,78.8,71.6,78,29.89,6.2,ESE,12.7,-,N/A,,Mostly Cloudy,110,2014-04-24 04:30:00
3:00 PM,78,71,72,29.88,,SE,10.4,,,,,140,2014-04-24 05:00:00
3:00 PM,78.8,71.6,78,29.89,6.2,SE,10.4,-,N/A,,Mostly Cloudy,140,2014-04-24 05:00:00
3:30 PM,77.0,71.6,83,29.89,6.2,SSE,13.8,-,N/A,,Scattered Clouds,160,2014-04-24 05:30:00
4:00 PM,75.2,71.6,89,29.86,6.2,SSE,16.1,-,N/A,,Mostly Cloudy,150,2014-04-24 06:00:00
4:06 PM,75.2,71.6,89,29.86,6.2,SSE,17.3,-,N/A,,Mostly Cloudy,150,2014-04-24 06:06:00
4:29 PM,77.0,71.6,83,29.89,6.2,SSE,13.8,-,N/A,,Mostly Cloudy,160,2014-04-24 06:29:00
4:30 PM,77.0,71.6,83,29.89,6.2,SSE,13.8,-,N/A,,Mostly Cloudy,160,2014-04-24 06:30:00
4:58 PM,75.2,71.6,89,29.89,6.2,SSE,16.1,-,N/A,,Overcast,150,2014-04-24 06:58:00
5:00 PM,75.2,71.6,89,29.89,6.2,SSE,16.1,-,N/A,,Overcast,150,2014-04-24 07:00:00
5:30 PM,75.2,71.6,89,29.89,6.2,SSE,18.4,-,N/A,,Mostly Cloudy,150,2014-04-24 07:30:00
6:00 PM,75,72,87,29.92,,SSE,19.6,,,,Overcast,150,2014-04-24 08:00:00
6:00 PM,75.2,71.6,89,29.92,6.2,SSE,19.6,-,N/A,,Overcast,150,2014-04-24 08:00:00
6:30 PM,75.2,71.6,89,29.92,6.2,SE,20.7,-,N/A,,Overcast,140,2014-04-24 08:30:00
7:00 PM,75.2,71.6,89,29.92,6.2,SE,18.4,-,N/A,,Mostly Cloudy,140,2014-04-24 09:00:00
7:34 PM,75.2,71.6,89,29.95,6.2,SSE,19.6,-,N/A,,Mostly Cloudy,150,2014-04-24 09:34:00
8:00 PM,75.2,71.6,89,29.95,6.2,SE,26.5,-,N/A,,Overcast,140,2014-04-24 10:00:00
8:30 PM,75.2,69.8,83,29.95,6.2,SSE,21.9,-,N/A,,Overcast,150,2014-04-24 10:30:00
9:00 PM,74,70,83,29.97,,SSE,23.0,,,,Overcast,160,2014-04-24 11:00:00
9:00 PM,73.4,69.8,88,29.98,6.2,SSE,23.0,-,N/A,,Overcast,160,2014-04-24 11:00:00
9:30 PM,73.4,69.8,88,29.98,6.2,SSE,23.0,-,N/A,,Overcast,150,2014-04-24 11:30:00
10:00 PM,73.4,69.8,88,29.98,6.2,SSE,19.6,-,N/A,,Overcast,150,2014-04-24 12:00:00
10:18 PM,73.4,69.8,88,29.98,6.2,SSE,20.7,-,N/A,,Overcast,150,2014-04-24 12:18:00
10:30 PM,73.4,69.8,88,29.98,6.2,SSE,21.9,-,N/A,,Overcast,150,2014-04-24 12:30:00
11:00 PM,73.4,69.8,88,29.98,6.2,SSE,21.9,-,N/A,,Mostly Cloudy,150,2014-04-24 13:00:00
11:30 PM,73.4,68.0,83,29.95,6.2,SSE,17.3,-,N/A,,Mostly Cloudy,150,2014-04-24 13:30:00